Location: Unspecified
(33.6682°S, 0.0000°E)
Time: 22:59:38
(UTC+00:00)

ISS - Visible Passes

Search period start: 26 May 2019 00:00
Search period end: 05 June 2019 00:00
Orbit: 408 x 418 km, 51.6° (Epoch: 27 May)

Date Brightness Start Highest point End Pass type
(mag) Time Alt. Az. Time Alt. Az. Time Alt. Az.
26 May -0.1 04:13:18 10° E 04:13:18 10° E 04:13:23 10° E visible
26 May -3.1 05:46:13 25° W 05:47:37 37° SW 05:50:48 10° SSE visible
27 May -2.1 04:59:47 28° SE 04:59:47 28° SE 05:01:32 10° SE visible
28 May -1.8 05:45:54 16° SSW 05:45:54 16° SSW 05:47:48 10° S visible
